Location: Miles
(41.4492°N, 81.6087°W)
Time: 08:03:01
(UTC+00:00)

Vanguard 3 - Pass Details

Date: 14 September 2024
Orbit: 507 x 3223 km, 33.3° (Epoch: 12 October)

Event Time Altitude Azimuth Distance (km) Brightness Sun altitude
Rises 09:08:02 0° 185° (S) 6,313 11.4 -22.1°
Reaches altitude 10° 09:14:06 10° 169° (S) 5,692 11.3 -21.1°
Maximum altitude 09:24:43 19° 133° (SE) 5,365 11.5 -19.3°
Drops below altitude 10° 09:35:55 10° 98° (E) 6,103 12.5 -17.3°
Sets 09:42:39 0° 83° (E) 6,929 13.5 -16.1°
